Weather Roundup
Issued by NWS Corpus Christi, TX

Home | Current Version | Previous Version | Text Only | Print | Product List | Glossary On
Versions: 1 2 3 4 5 6 7 8 9 10 11 12 13 14 15 16 17 18 19 20 21 22 23 24 25 26 27 28 29 30 31 32 33 34 35 36 37 38 39 40 41 42 43 44 45 46 47 48 49 50
000
ASUS44 KCRP 181810
HRRCRP

SOUTH TEXAS REGIONAL WEATHER ROUNDUP
NATIONAL WEATHER SERVICE CORPUS CHRISTI TX
1200 PM CST WED JAN 18 2017


TXZ229>244-181900-
...CORPUS CHRISTI AREA OBSERVATIONS...

CITY           SKY/WX    TMP DP  RH WIND       PRES   REMARKS
CORPUS CHRISTI CLOUDY    57  55  93 NW17      30.07F
NAS CORPUS CHR CLOUDY    58  55  90 NW15      30.05F
ROCKPORT       CLOUDY    56  54  93 NW13      30.05F
KINGSVILLE NAS CLOUDY    58  56  93 NW14      30.09F
ALICE          CLOUDY    56  52  86 NW13      30.09F
ORANGE GROVE   CLOUDY    57  55  93 N10       30.09F
FALFURRIAS     CLOUDY    59  54  83 NW9       30.09F
$$

...VICTORIA AREA OBSERVATIONS...

CITY           SKY/WX    TMP DP  RH WIND       PRES   REMARKS
VICTORIA       CLOUDY    54  52  93 NW10      30.07F
BEEVILLE       CLOUDY    46  46 100 N7        30.09F
PLEASANTON     CLOUDY    56  51  82 NW3       30.11F
SAN ANTONIO    CLOUDY    56  50  80 N7        30.10F
$$

...LAREDO AREA OBSERVATIONS...

CITY           SKY/WX    TMP DP  RH WIND       PRES   REMARKS
LAREDO         CLOUDY    59  48  67 NW10      30.14F
COTULLA        CLOUDY    58  51  78 NW7       30.12F
DEL RIO        CLOUDY    53  45  74 NW16      30.15F
MCALLEN          N/A     64  56  75 NW14      30.09F
HEBBRONVILLE   CLOUDY    54  52  93 NW9       30.11F
$$

...OTHER TEXAS OBSERVATIONS...

CITY           SKY/WX    TMP DP  RH WIND       PRES   REMARKS
BROWNSVILLE    MOSUNNY   71  61  70 NW12      30.05F
HOUSTON        LGT RAIN  73  68  84 W3        30.01F
COL. STATION   HVY RAIN  52  52 100 E7        30.05S FOG
AUSTIN         CLOUDY    54  50  86 NW9       30.08F
WACO           CLOUDY    50  49  96 NW8       30.11R
FORT WORTH     LGT RAIN  50  48  93 NW10      30.09F
WICHITA FALLS  CLOUDY    46  44  93 CALM      30.13F FOG
LUBBOCK        PTSUNNY   52  42  69 SW14G22   30.08F
EL PASO        FAIR      48  39  71 S8        30.17F
$$

...MARINE OBSERVATIONS...

STATION/POSITION TIME  SKY/WX   TEMP    WIND        PRES    VSBY  WAVE   SWELL
                                AIR SEA DIR/SP/G                  HT/PER HT/PER
                 (UTC)          (F)     (DEG/KT/KT) (MB)    (MI)  (FT/S) (FT/S)
PORT ARANSAS     1800            56 64  310/ 12/ 14 1017.1F
BUOY 90 E PORT A 1750            74 73  150/ 14/ 16 1017.0F         4/ 6   3/ 6
BUOY 45 SE BAFFI 1650            64     300/ 12/ 14 1017.5          5/ 8   3/ 8
BUOY 200 E PT IS 1750            75 75  130/ 10/ 12 1017.6F         4/ 7   3/ 7
BUOY 15 E GALVES 1750            69 65  170/ 10/ 12 1017.3F         3/ 6   2/ 6
$$



USA.gov is the U.S. government's official web portal to all federal, state and local government web resources and services.